Terug naar catalogus

STARLINK-30959

ActiefCommunicatieVLEO
NORAD 58442·PAYLOAD·🇺🇸 United States

Gelanceerd Nov 28, 2023 vanaf Cape Canaveral Space Force Station

Loading…

Volgende Passages (komende 24 uur)

TLE

VersSource: CelesTrak SupGP

Epoch: Sep 14, 2026, 22:19 UTC

1 58442C 23183F   26257.93034722  .00054394  00000+0  19699-2 0  2579
2 58442  43.0043  52.6089 0001777 278.6677 294.2228 15.27555895    16

Volg STARLINK-30959 in realtime met AllMySat

Download on the App Store